Weather History for Lanai City, HI

Change the Weather History Date:

Saturday, July 27, 2013

  Actual Average Record
Temperature  
Mean Temperature 74 °F -  
Max Temperature 83 °F 83 °F 87 °F (2001)
Min Temperature 66 °F 67 °F 60 °F (1954)
Cooling Degree Days 10    
Growing Degree Days 24 (Base 50)    
Moisture  
Dew Point 65 °F    
Average Humidity 70    
Maximum Humidity 90    
Minimum Humidity 54    
Precipitation  
Precipitation 0.00 in - - ()
Sea Level Pressure  
Sea Level Pressure 30.01 in    
Wind  
Wind Speed 10 mph (NE)    
Max Wind Speed 21 mph    
Max Gust Speed 28 mph    
Visibility 10 miles    
Events      
Averages and records for this station are not official NWS values.
T = Trace of Precipitation, MM = Missing Value Source: NWS Daily Summary

Daily Weather History Graph

Daily Weather History Graph

Search for Another Location

Airport:

Trip Planner

Search our weather history database for the weather conditions in past years. The results will help you decide how hot, cold, wet, or windy it might be!

Date:

Astronomy

Jul. 27, 2013 Rise Set
Actual Time 6:00 AM HST 7:08 PM HST
Civil Twilight 5:36 AM HST 7:31 PM HST
Nautical Twilight 5:08 AM HST 8:00 PM HST
Astronomical Twilight 4:39 AM HST 8:28 PM HST
Moon 10:57 PM HST 10:59 AM HST
Length of Visible Light 13h 55m
Length of Day
13h 07m
Waning Gibbous, 68% of the Moon is Illuminated
Jul 27
Waning Gibbous
Jul 29
Last Quarter
Aug 6
New
Aug 14
First Quarter
Aug 20
Full

Hourly Weather History & Observations

Time (HST) Temp. Heat Index Dew Point Humidity Pressure Visibility Wind Dir Wind Speed Gust Speed Precip Events Conditions
12:56 AM 68.0 °F - 63.0 °F 84% 30.03 in - East 6.9 mph - N/A   Mostly Cloudy
1:56 AM 66.9 °F - 63.0 °F 87% 30.02 in 10.0 mi ENE 9.2 mph - N/A   Clear
2:56 AM 66.9 °F - 63.9 °F 90% 30.01 in 10.0 mi NE 6.9 mph - N/A   Clear
3:56 AM 68.9 °F - 64.9 °F 87% 30.01 in 10.0 mi ENE 3.5 mph - N/A   Partly Cloudy
4:56 AM 68.9 °F - 64.9 °F 87% 30.01 in 10.0 mi NE 9.2 mph - N/A   Clear
5:56 AM 66.9 °F - 61.9 °F 84% 30.02 in 10.0 mi East 5.8 mph - N/A   Clear
6:56 AM 68.9 °F - 63.9 °F 84% 30.04 in 10.0 mi North 5.8 mph - N/A   Clear
7:56 AM 72.9 °F - 63.0 °F 71% 30.05 in 10.0 mi Variable 3.5 mph - N/A   Clear
8:56 AM 74.8 °F - 63.9 °F 69% 30.04 in 10.0 mi WNW 3.5 mph - N/A   Clear
9:56 AM 79.9 °F - 63.9 °F 58% 30.03 in 10.0 mi Variable 5.8 mph - N/A   Clear
10:42 AM 80.6 °F 82.3 °F 64.4 °F 58% 30.09 in 10.0 mi ENE 13.8 mph - N/A   Mostly Cloudy
10:56 AM 82.9 °F 85.0 °F 65.8 °F 56% 30.01 in 10.0 mi NNE 15.0 mph 23.0 mph N/A   Mostly Cloudy
11:03 AM 82.4 °F 84.6 °F 66.2 °F 58% 30.08 in 10.0 mi NNE 16.1 mph - N/A   Partly Cloudy
11:56 AM 82.9 °F 84.6 °F 64.9 °F 54% 30.00 in 10.0 mi NE 18.4 mph 21.9 mph N/A   Clear
12:56 PM 83.8 °F 86.0 °F 65.8 °F 55% 29.98 in 10.0 mi NE 20.7 mph 27.6 mph N/A   Clear
1:56 PM 82.9 °F 85.4 °F 66.9 °F 58% 29.97 in 10.0 mi NNE 19.6 mph 26.5 mph N/A   Mostly Cloudy
2:56 PM 82.9 °F 85.0 °F 65.8 °F 56% 29.96 in 10.0 mi ENE 20.7 mph - N/A   Scattered Clouds
3:56 PM 82.9 °F 85.0 °F 65.8 °F 56% 29.95 in 10.0 mi NE 16.1 mph 23.0 mph N/A   Partly Cloudy
4:56 PM 79.9 °F - 66.9 °F 64% 29.95 in 10.0 mi NE 17.3 mph - N/A   Clear
5:56 PM 77.9 °F - 66.9 °F 69% 29.97 in 10.0 mi NNE 16.1 mph - N/A   Clear
6:32 PM 77.0 °F - 64.4 °F 65% 30.04 in 10.0 mi NE 13.8 mph - N/A   Mostly Cloudy
6:56 PM 75.9 °F - 65.8 °F 71% 29.99 in 10.0 mi ENE 8.1 mph - N/A   Scattered Clouds
7:56 PM 73.9 °F - 63.9 °F 71% 29.99 in 10.0 mi ENE 12.7 mph 18.4 mph N/A   Clear
8:56 PM 72.9 °F - 63.9 °F 73% 30.01 in 10.0 mi NE 16.1 mph - N/A   Overcast
9:56 PM 72.0 °F - 63.9 °F 76% 30.02 in 10.0 mi NE 19.6 mph 25.3 mph N/A   Clear
10:56 PM 70.9 °F - 63.9 °F 78% 30.01 in 10.0 mi East 8.1 mph - N/A   Clear
11:56 PM 70.9 °F - 63.9 °F 78% 30.01 in 10.0 mi NE 6.9 mph - N/A   Mostly Cloudy